Location: Demre
(36.2444°N, 29.9850°E)
Time: 05:54:01
(UTC+00:00)

Cosmos 1867 - Pass Details

Date: 11 March 2026
Orbit: 776 x 798 km, 65.0° (Epoch: 21 April)

Event Time Altitude Azimuth Distance (km) Brightness Sun altitude
Rises 16:44:49 0° 336° (NNW) 3,306 7.2 -9.1°
Reaches altitude 10° 16:47:21 10° 342° (NNW) 2,373 6.3 -9.6°
Maximum altitude 16:52:37 47° 56° (NE) 1,053 3.9 -10.7°
Drops below altitude 10° 16:57:49 10° 129° (SE) 2,356 5.5 -11.7°
Enters shadow 16:58:01 - 130° (SE) 2,424 5.6 -11.7°
